[[{"header":{"parameterUnit":"m.s-1","parameterCategory":1,"la1":30.2991,"la2":30.254,"lo1":-89.0895,"lo2":-89.0444,"dy":0.0017,"dx":0.0017,"nx":28,"ny":28,"refTime":"2025-07-05T03:00:00:Z","depth":0,"parameterNumber":2,"parameterNumberName":"U-component_of_WINDS"},"data":[0,0,0,0,0,0,0,0,0,0,0,0,0,0,0,0,0,0,0,0,0,0,0,0,0,0,0,0,0,0,0,0,0,0,0,0,0,0,0,0,0,0,0,0,0,0,0,0,0,0,0,0,0,0,0,0,0,0,0.6447,0.6446,0,0.6434,0.6434,0.6434,0.6445,0.6446,0.6446,0.6447,0.6431,0.643,0.6429,0,0,0,0,0,0,0,0,0,0,0,0,0,0.6479,0.6478,0.6447,0.6446,0.6446,0.6434,0.6434,0.6434,0.6445,0.6446,0.6446,0.6447,0.6431,0.643,0.6429,0,0,0,0,0,0,0,0,0,0,0,0,0,0.6465,0.6478,0.6447,0.6451,0.6451,0.6434,0.6434,0.6434,0.6445,0.6446,0.6446,0.6447,0.6432,0.643,0.6429,0.6407,0,0,0.6425,0.6425,0,0,0,0,0,0,0,0,0.6466,0.6464,0.645,0.645,0.6451,0.6442,0.644,0.6425,0.6445,0.6447,0.6447,0.6447,0.6434,0.6432,0.6428,0.6406,0.6405,0.6425,0.6424,0.6424,0.6423,0,0,0,0,0,0,0,0.6467,0.6465,0.6442,0.645,0.645,0.6453,0.6451,0.6437,0.6436,0.6447,0.6448,0.6446,0.6434,0.643,0.6428,0.6405,0.6425,0.6424,0.6423,0.6423,0.6365,0.6364,0,0,0,0,0,0,0.6468,0.6466,0.6442,0.6441,0.646,0.6451,0.645,0.6444,0.6437,0.6436,0.6446,0.6447,0.6431,0.643,0.6428,0.6401,0.6424,0.6422,0.6422,0.6366,0.6365,0.6364,0,0,0,0,0,0,0.6469,0.6466,0.6442,0.6454,0.6451,0.645,0.6443,0.6443,0.6439,0.6436,0.6436,0.6441,0.6432,0.6429,0.6412,0.6401,0.6422,0.6421,0.6366,0.6365,0.6364,0.6348,0,0,0,0,0,0,0.647,0.6466,0.6458,0.6453,0.645,0.6428,0.6442,0.6443,0.6437,0.6438,0.6432,0.6431,0.6432,0.6414,0.6411,0.6399,0.642,0.6367,0.6366,0.6365,0.6349,0.6346,0.6344,0,0,0,0,0,0.6471,0.6453,0.6457,0.6454,0.644,0.6427,0.6425,0.6427,0.6436,0.6427,0.6426,0.6431,0.6403,0.6412,0.6409,0.6397,0.6368,0.6366,0.6365,0.6351,0.6347,0.6344,0,0,0,0,0,0,0.6454,0.6452,0.6457,0.6437,0.6432,0.6429,0.6418,0.6423,0.6415,0.6416,0.6419,0.6418,0.64,0.6397,0.6407,0.6375,0.6387,0.6384,0.6377,0.6374,0.6371,0.6371,0.6419,0,0,0,0,0,0.6449,0.6439,0.6437,0.642,0.6418,0.6418,0.6413,0.6415,0.641,0.6407,0.6404,0.6398,0.6388,0.6381,0.6371,0.635,0.6348,0.634,0.6337,0.6335,0.6332,0.632,0.6317,0.6358,0.6358,0.6358,0,0,0.6436,0.6434,0.6427,0.6417,0.6413,0.6403,0.6416,0.6404,0.6396,0.6405,0.6389,0.6387,0.638,0.6361,0.6352,0.6358,0.6321,0.6333,0.6331,0.6329,0.6318,0.6314,0.6311,0.6357,0.6357,0.6357,0,0,0.6408,0.6406,0.6391,0.6388,0.6383,0.6384,0.6381,0.6377,0.6376,0.636,0.6367,0.6357,0.634,0.6335,0.633,0.6302,0.6307,0.6299,0.6283,0.6272,0.6269,0.6266,0.6255,0.6252,0.6297,0.6297,0.6297,0,0.6392,0.6377,0.6383,0.637,0.6366,0.6376,0.6361,0.6357,0.6349,0.6345,0.6352,0.6331,0.6327,0.6307,0.63,0.6296,0.6292,0.6299,0.6269,0.6266,0.6264,0.6254,0.625,0.6296,0.6296,0.6296,0.6296,0,0.6359,0.6348,0.6337,0.633,0.6324,0.6311,0.6314,0.6307,0.6311,0.6311,0.6295,0.6292,0.6282,0.6278,0.6281,0.6258,0.6262,0.6269,0.628,0.6259,0.6249,0.6245,0.6295,0.6295,0.6295,0.6295,0,0,0.6317,0.6315,0.6311,0.6308,0.6304,0.6296,0.6283,0.6275,0.6269,0.6264,0.6253,0.6239,0.6246,0.624,0.6243,0.6234,0.6212,0.6242,0.6242,0.6236,0.6186,0.6179,0.6175,0.6216,0.6215,0.6215,0.6186,0,0.6287,0.6266,0.6272,0.625,0.624,0.6251,0.624,0.6236,0.6237,0.6228,0.6229,0.6218,0.6229,0.6226,0.6217,0.6216,0.6202,0.6219,0.6205,0.6204,0.6204,0.617,0.6163,0.6136,0.6183,0.6182,0.6182,0,0.625,0.6244,0.6222,0.6221,0.6217,0.6207,0.62,0.6193,0.6189,0.619,0.6186,0.6191,0.6178,0.6192,0.6174,0.6185,0.6181,0.618,0.6179,0.6176,0.619,0.6165,0.6127,0.6123,0.6176,0.6177,0.6177,0,0.622,0.6208,0.6193,0.619,0.6189,0.6182,0.6181,0.6178,0.6173,0.6168,0.6164,0.6157,0.6152,0.6146,0.6149,0.6159,0.6131,0.6145,0.6131,0.6131,0.6122,0.6122,0.6082,0.6122,0.6122,0.6122,0.6122,0,0.6186,0.6171,0.618,0.617,0.6155,0.6162,0.6146,0.6146,0.6144,0.6135,0.6144,0.6135,0.6141,0.6132,0.6135,0.6119,0.6118,0.6118,0.6118,0.6116,0.6115,0.6111,0.6112,0.6121,0.6121,0.6121,0.6122,0,0.6149,0.6154,0.6138,0.6139,0.6139,0.6128,0.6128,0.612,0.6122,0.611,0.6108,0.6111,0.6102,0.6105,0.6095,0.6097,0.6077,0.6081,0.6078,0.6078,0.6064,0.6064,0.6017,0.6011,0.6057,0.6056,0.6056,0,0.6125,0.6115,0.6116,0.6111,0.6109,0.6101,0.6097,0.6104,0.6099,0.6095,0.6087,0.6079,0.6072,0.6056,0.6057,0.605,0.6052,0.6037,0.6051,0.6049,0.6051,0.605,0.6049,0.6033,0.6032,0.6032,0.6031,0,0.6083,0.6087,0.608,0.6075,0.607,0.6066,0.6062,0.6058,0.6065,0.6059,0.605,0.6045,0.6036,0.6027,0.6021,0.6019,0.6026,0.6028,0.6024,0.602,0.6018,0.6018,0.6068,0.6028,0.6028,0.6028,0.6029,0.6029,0.6051,0.6042,0.6042,0.6035,0.6034,0.6031,0.6023,0.6025,0.6018,0.6012,0.6017,0.6006,0.6005,0.5997,0.5995,0.5987,0.5993,0.5987,0.5985,0.5983,0.5981,0.6022,0.5986,0.5986,0.5986,0.5986,0.5986,0,0.6008,0.6009,0.6003,0.5999,0.5993,0.6003,0.6,0.5994,0.5985,0.5984,0.5978,0.5968,0.5961,0.5962,0.5955,0.5948,0.5951,0.5946,0.5945,0.5945,0.5977,0.598,0.5944,0.5944,0.5944,0.5944,0.5944,0.5944,0.5985,0.5971,0.5975,0.596,0.5961,0.5952,0.595,0.5947,0.5946,0.5935,0.5929,0.5931,0.5931,0.5924,0.5918,0.5918,0.5915,0.5908,0.591,0.5939,0.5943,0.5947,0.595,0.5908,0.5908,0.5879,0.5878,0.5878]},{"header":{"parameterUnit":"m.s-1","parameterCategory":1,"la1":30.2991,"la2":30.254,"lo1":-89.0895,"lo2":-89.0444,"dy":0.0017,"dx":0.0017,"nx":28,"ny":28,"refTime":"2025-07-05T03:00:00:Z","depth":0,"parameterNumber":3,"parameterNumberName":"V-component_of_WINDS"},"data":[0,0,0,0,0,0,0,0,0,0,0,0,0,0,0,0,0,0,0,0,0,0,0,0,0,0,0,0,0,0,0,0,0,0,0,0,0,0,0,0,0,0,0,0,0,0,0,0,0,0,0,0,0,0,0,0,0,0,-2.5812,-2.5814,0,-2.5961,-2.5963,-2.5965,-2.5982,-2.598,-2.5979,-2.5977,-2.6129,-2.6134,-2.614,0,0,0,0,0,0,0,0,0,0,0,0,0,-2.5541,-2.5546,-2.5812,-2.5814,-2.5816,-2.5961,-2.5963,-2.5965,-2.5982,-2.598,-2.5978,-2.5976,-2.6127,-2.6134,-2.614,0,0,0,0,0,0,0,0,0,0,0,0,0,-2.5671,-2.5548,-2.5812,-2.5842,-2.5846,-2.5961,-2.5963,-2.5966,-2.5982,-2.598,-2.5978,-2.5976,-2.6125,-2.6133,-2.6141,-2.6236,0,0,-2.6166,-2.6169,0,0,0,0,0,0,0,0,-2.5664,-2.5681,-2.5835,-2.584,-2.5845,-2.5951,-2.5923,-2.6056,-2.5983,-2.593,-2.5977,-2.5975,-2.6071,-2.6084,-2.6117,-2.6243,-2.625,-2.6167,-2.6172,-2.6175,-2.6177,0,0,0,0,0,0,0,-2.5655,-2.5675,-2.5871,-2.5837,-2.5843,-2.5847,-2.5864,-2.5949,-2.6012,-2.5935,-2.5936,-2.5954,-2.6073,-2.6109,-2.612,-2.6252,-2.6166,-2.6174,-2.6179,-2.6182,-2.6465,-2.6468,0,0,0,0,0,0,-2.564,-2.5667,-2.5866,-2.5876,-2.5747,-2.5854,-2.5872,-2.5919,-2.6011,-2.6023,-2.5956,-2.5954,-2.6096,-2.6111,-2.6126,-2.6244,-2.6175,-2.6183,-2.6187,-2.6462,-2.6466,-2.6468,0,0,0,0,0,0,-2.5634,-2.5658,-2.586,-2.5772,-2.5798,-2.5861,-2.5914,-2.5923,-2.5958,-2.6026,-2.6038,-2.598,-2.6095,-2.6114,-2.6209,-2.6249,-2.6186,-2.6194,-2.6459,-2.6463,-2.6467,-2.648,0,0,0,0,0,0,-2.5627,-2.5656,-2.5692,-2.5773,-2.5803,-2.5941,-2.5916,-2.5927,-2.5972,-2.5972,-2.6052,-2.6064,-2.6094,-2.6197,-2.6217,-2.6259,-2.62,-2.6456,-2.6461,-2.6466,-2.6476,-2.6483,-2.649,0,0,0,0,0,-2.5617,-2.569,-2.5694,-2.5718,-2.585,-2.5943,-2.596,-2.5995,-2.5976,-2.6013,-2.6057,-2.6061,-2.6242,-2.6206,-2.6229,-2.6274,-2.6454,-2.646,-2.6465,-2.6473,-2.6482,-2.649,0,0,0,0,0,0,-2.5612,-2.5701,-2.5707,-2.5807,-2.5868,-2.5946,-2.5994,-2.6003,-2.607,-2.6066,-2.6106,-2.6124,-2.6217,-2.6255,-2.6214,-2.6372,-2.6346,-2.6356,-2.6343,-2.6353,-2.636,-2.6348,-2.6207,0,0,0,0,0,-2.5622,-2.5691,-2.5765,-2.5847,-2.5877,-2.593,-2.5972,-2.5994,-2.6057,-2.6083,-2.6134,-2.6195,-2.6266,-2.6311,-2.638,-2.6482,-2.65,-2.6524,-2.6531,-2.6537,-2.6545,-2.6603,-2.6614,-2.6488,-2.6488,-2.6488,0,0,-2.5645,-2.5702,-2.5743,-2.5847,-2.5896,-2.5966,-2.5951,-2.6026,-2.6078,-2.6094,-2.6186,-2.6226,-2.6298,-2.6396,-2.6442,-2.6431,-2.6585,-2.6544,-2.6548,-2.6554,-2.661,-2.6622,-2.6632,-2.6492,-2.6491,-2.6491,0,0,-2.5722,-2.5772,-2.5846,-2.5896,-2.5971,-2.6006,-2.6024,-2.6101,-2.6128,-2.6222,-2.6235,-2.6298,-2.6419,-2.647,-2.6511,-2.6609,-2.6615,-2.663,-2.6667,-2.6722,-2.6732,-2.6741,-2.6776,-2.6788,-2.6639,-2.6639,-2.6639,0,-2.574,-2.5846,-2.5882,-2.5957,-2.6003,-2.6021,-2.6096,-2.6143,-2.6236,-2.6267,-2.6254,-2.6407,-2.6456,-2.6567,-2.6591,-2.6624,-2.6645,-2.6621,-2.6728,-2.6737,-2.6746,-2.678,-2.6793,-2.664,-2.664,-2.664,-2.664,0,-2.5865,-2.5939,-2.5989,-2.608,-2.6131,-2.6206,-2.6253,-2.6301,-2.6319,-2.6356,-2.6451,-2.6512,-2.6593,-2.6621,-2.6639,-2.6735,-2.6726,-2.672,-2.6694,-2.6759,-2.6791,-2.6804,-2.6642,-2.6642,-2.6641,-2.6641,0,0,-2.5941,-2.6052,-2.607,-2.6111,-2.6196,-2.6254,-2.633,-2.641,-2.645,-2.6515,-2.6579,-2.6682,-2.6677,-2.6724,-2.6748,-2.6796,-2.687,-2.6784,-2.6786,-2.6798,-2.698,-2.6984,-2.6998,-2.6875,-2.6878,-2.688,-2.6974,0,-2.6027,-2.6163,-2.6198,-2.6313,-2.6382,-2.6401,-2.6467,-2.6527,-2.6564,-2.6627,-2.6668,-2.674,-2.6728,-2.6757,-2.6806,-2.685,-2.6907,-2.6844,-2.6935,-2.6938,-2.6916,-2.7015,-2.7019,-2.7105,-2.6987,-2.6989,-2.6991,0,-2.6145,-2.6213,-2.6335,-2.6412,-2.6442,-2.6501,-2.6578,-2.6639,-2.6707,-2.673,-2.6784,-2.6803,-2.6883,-2.6854,-2.6964,-2.6921,-2.696,-2.6988,-2.6992,-2.7001,-2.6968,-2.7027,-2.7134,-2.7146,-2.7011,-2.7009,-2.7008,0,-2.6188,-2.631,-2.6399,-2.6434,-2.6526,-2.6567,-2.6607,-2.6673,-2.6719,-2.6787,-2.6818,-2.6893,-2.6935,-2.6993,-2.7032,-2.7008,-2.714,-2.7114,-2.7161,-2.716,-2.7187,-2.7185,-2.7302,-2.7214,-2.7214,-2.7213,-2.7213,0,-2.6281,-2.6354,-2.642,-2.6474,-2.6558,-2.6598,-2.668,-2.6721,-2.678,-2.6843,-2.6864,-2.6923,-2.6971,-2.7037,-2.7068,-2.7155,-2.7174,-2.7195,-2.7202,-2.7193,-2.719,-2.7218,-2.7213,-2.7217,-2.7216,-2.7215,-2.7215,0,-2.6342,-2.6389,-2.6487,-2.6567,-2.6588,-2.6646,-2.6715,-2.6769,-2.6807,-2.6886,-2.6907,-2.6967,-2.7045,-2.7091,-2.7189,-2.721,-2.7307,-2.7312,-2.7284,-2.7287,-2.7332,-2.7327,-2.747,-2.7491,-2.739,-2.7391,-2.7391,0,-2.6397,-2.6455,-2.6541,-2.6585,-2.6626,-2.6696,-2.6744,-2.6787,-2.6836,-2.6918,-2.6962,-2.7042,-2.7108,-2.7232,-2.7284,-2.736,-2.7366,-2.7412,-2.7378,-2.7367,-2.7367,-2.7363,-2.7369,-2.7417,-2.7418,-2.7419,-2.7419,0,-2.649,-2.6511,-2.6579,-2.6656,-2.6713,-2.6775,-2.6837,-2.6872,-2.6925,-2.6979,-2.706,-2.7111,-2.7212,-2.7291,-2.7371,-2.7413,-2.7425,-2.743,-2.7445,-2.7435,-2.7416,-2.7427,-2.7299,-2.7426,-2.7425,-2.7425,-2.7424,-2.7424,-2.655,-2.6602,-2.6672,-2.6747,-2.6799,-2.6856,-2.6911,-2.6957,-2.7025,-2.7111,-2.7132,-2.7217,-2.7285,-2.7394,-2.7437,-2.7504,-2.7496,-2.7518,-2.7523,-2.7528,-2.7529,-2.7407,-2.7519,-2.7519,-2.7519,-2.7519,-2.7519,0,-2.6644,-2.669,-2.6759,-2.6846,-2.6905,-2.6913,-2.6982,-2.7032,-2.7106,-2.7168,-2.7233,-2.7326,-2.7403,-2.7462,-2.7541,-2.7583,-2.7591,-2.7603,-2.76,-2.7609,-2.7532,-2.7511,-2.7595,-2.7595,-2.7595,-2.7595,-2.7595,-2.7595,-2.67,-2.6789,-2.6818,-2.6932,-2.6978,-2.7061,-2.71,-2.7154,-2.7204,-2.7307,-2.7372,-2.741,-2.7471,-2.7555,-2.7626,-2.7642,-2.7669,-2.768,-2.7696,-2.7623,-2.7614,-2.7606,-2.7587,-2.7686,-2.7686,-2.7768,-2.7769,-2.7769]}]]